Binghamton, NY

1:15 AM EDT on August 18, 2017 (GMT -0400)
Binghamton Regional-Link

Weather History for KBGM - October, 2011

Change the Weather History Date:

Friday, October 14, 2011

  Actual Average Record
Temperature  
Mean Temperature 58 °F 49 °F  
Max Temperature 68 °F 58 °F 80 °F (1954)
Min Temperature 48 °F 41 °F 24 °F (1993)
Degree Days  
Heating Degree Days 7 16  
Month to date heating degree days 141 194  
Since 1 July heating degree days 279 451  
Cooling Degree Days 0 0  
Month to date cooling degree days 0 0  
Year to date cooling degree days 527 379  
Growing Degree Days 7 (Base 50)    
Moisture  
Dew Point 56 °F    
Average Humidity 87    
Maximum Humidity 100    
Minimum Humidity 73    
Precipitation  
Precipitation 0.73 in 0.11 in 2.05 in (1995)
Month to date precipitation 2.06 1.56  
Year to date precipitation 59.83 31.40  
Snow  
Snow 0.00 in 0.00 in 0.20 in (1980)
Month to date snowfall 0.0 0.1  
Since 1 July snowfall 0.0 0.1  
Since 1 September snowfall 0.0 0.1  
Snow Depth 0.00 in    
Sea Level Pressure  
Sea Level Pressure 29.46 in    
Wind  
Wind Speed 11 mph (South)    
Max Wind Speed 21 mph    
Max Gust Speed 30 mph    
Visibility 7 miles    
Events Rain , Thunderstorm    
T = Trace of Precipitation, MM = Missing Value Source: NWS Daily Summary

Daily Weather History Graph

Daily Weather History Graph

Search for Another Location

Airport or City:

Trip Planner

Search our weather history database for the weather conditions in past years. The results will help you decide how hot, cold, wet, or windy it might be!

Date:

Astronomy

Oct. 14, 2011 Rise Set
Actual Time 7:15 AM EDT 6:24 PM EDT
Civil Twilight 6:46 AM EDT 6:52 PM EDT
Nautical Twilight 6:14 AM EDT 7:24 PM EDT
Astronomical Twilight 5:41 AM EDT 7:57 PM EDT
Moon 7:32 PM EDT (10/14) 9:45 AM EDT (10/14)
Length of Visible Light 12h 05m
Length of Day
11h 09m
Waning Gibbous, 94% of the Moon is Illuminated
Oct 14
Waning Gibbous
Oct 19
Last Quarter
Oct 26
New
Nov 2
First Quarter
Nov 10
Full

Hourly Weather History & Observations

Time (EDT) Temp. Dew Point Humidity Pressure Visibility Wind Dir Wind Speed Gust Speed Precip Events Conditions
12:08 AM 60.8 °F 59.0 °F 94% 29.65 in 2.0 mi SSE 12.7 mph - 0.08 in Rain , Thunderstorm Rain
12:21 AM 60.8 °F 59.0 °F 94% 29.63 in 3.0 mi SE 12.7 mph 24.2 mph 0.13 in Rain , Thunderstorm Rain
12:28 AM 60.8 °F 60.8 °F 100% 29.63 in 4.0 mi SSE 12.7 mph - 0.15 in Rain Rain
12:35 AM 60.8 °F 59.0 °F 94% 29.62 in 4.0 mi SE 12.7 mph - 0.17 in Rain Rain
12:53 AM 60.1 °F 59.0 °F 96% 29.59 in 10.0 mi ESE 15.0 mph - 0.21 in Rain Light Rain
1:00 AM 60.8 °F 59.0 °F 94% 29.60 in 6.0 mi SE 13.8 mph - 0.00 in Rain Rain
1:33 AM 60.8 °F 59.0 °F 94% 29.59 in 10.0 mi ESE 12.7 mph - 0.06 in Rain Light Rain
1:53 AM 60.1 °F 59.0 °F 96% 29.57 in 9.0 mi SE 13.8 mph - 0.06 in Rain Light Rain
2:53 AM 61.0 °F 60.1 °F 97% 29.54 in 10.0 mi SE 11.5 mph - 0.02 in   Overcast
3:00 AM 60.8 °F 60.8 °F 100% 29.55 in 10.0 mi SE 11.5 mph - N/A   Overcast
3:53 AM 62.1 °F 60.1 °F 93% 29.52 in 10.0 mi SSE 10.4 mph - 0.00 in   Overcast
4:06 AM 62.6 °F 60.8 °F 94% 29.53 in 10.0 mi SE 12.7 mph - N/A Rain Light Rain
4:22 AM 62.6 °F 60.8 °F 94% 29.53 in 2.5 mi SE 11.5 mph - 0.05 in Rain Heavy Rain
4:29 AM 62.6 °F 60.8 °F 94% 29.53 in 3.0 mi SSE 11.5 mph - 0.08 in Rain Rain
4:36 AM 62.6 °F 60.8 °F 94% 29.53 in 6.0 mi SSE 11.5 mph - 0.10 in Rain Light Rain
4:48 AM 62.6 °F 60.8 °F 94% 29.53 in 10.0 mi SSE 12.7 mph - 0.10 in   Overcast
4:53 AM 62.1 °F 61.0 °F 96% 29.52 in 10.0 mi SSE 11.5 mph 18.4 mph 0.10 in   Overcast
5:18 AM 62.6 °F 60.8 °F 94% 29.53 in 10.0 mi SSE 10.4 mph - N/A   Overcast
5:53 AM 62.1 °F 60.1 °F 93% 29.50 in 10.0 mi SSE 11.5 mph - N/A   Scattered Clouds
6:53 AM 61.0 °F 60.1 °F 97% 29.49 in 10.0 mi South 8.1 mph - N/A   Clear
7:53 AM 62.1 °F 59.0 °F 90% 29.49 in 10.0 mi South 9.2 mph - N/A   Partly Cloudy
8:49 AM 62.6 °F 59.0 °F 88% 29.50 in 10.0 mi South 8.1 mph 19.6 mph N/A   Mostly Cloudy
8:53 AM 62.6 °F 59.0 °F 88% 29.50 in 10.0 mi South 9.2 mph 19.6 mph N/A   Mostly Cloudy
9:24 AM 62.6 °F 59.0 °F 88% 29.48 in 10.0 mi South 8.1 mph 16.1 mph N/A   Scattered Clouds
9:53 AM 64.0 °F 59.0 °F 84% 29.46 in 10.0 mi SSE 12.7 mph - N/A   Clear
10:53 AM 64.9 °F 57.9 °F 78% 29.44 in 10.0 mi SSE 11.5 mph 18.4 mph N/A   Mostly Cloudy
11:18 AM 64.4 °F 57.2 °F 77% 29.44 in 10.0 mi SSE 9.2 mph - N/A   Overcast
11:48 AM 66.2 °F 57.2 °F 73% 29.44 in 10.0 mi South 9.2 mph 23.0 mph N/A   Mostly Cloudy
11:53 AM 66.2 °F 57.2 °F 73% 29.43 in 10.0 mi South 11.5 mph - N/A   Mostly Cloudy
12:53 PM 64.9 °F 55.0 °F 70% 29.38 in 10.0 mi South 10.4 mph 17.3 mph 0.00 in Rain Light Rain
1:32 PM 57.2 °F 55.4 °F 94% 29.39 in 2.0 mi SSW 15.0 mph 26.5 mph 0.02 in Rain Rain
1:48 PM 59.0 °F 55.4 °F 88% 29.39 in 10.0 mi South 12.7 mph 24.2 mph 0.04 in Rain Light Rain
1:53 PM 59.0 °F 55.0 °F 87% 29.37 in 10.0 mi South 13.8 mph 24.2 mph 0.04 in Rain Light Rain
2:00 PM 57.2 °F 55.4 °F 94% 29.39 in 10.0 mi South 12.7 mph 20.7 mph 0.01 in Rain Light Rain
2:53 PM 59.0 °F 55.4 °F 88% 29.35 in 10.0 mi SSE 11.5 mph - N/A   Scattered Clouds
3:45 PM 59.0 °F 55.4 °F 88% 29.34 in 9.0 mi SE 6.9 mph - N/A   Overcast
3:51 PM 59.0 °F 55.4 °F 88% 29.35 in 1.8 mi WSW 12.7 mph 19.6 mph 0.02 in Rain Heavy Rain
3:53 PM 57.9 °F 55.0 °F 90% 29.33 in 1.0 mi West 15.0 mph 19.6 mph 0.03 in Rain Heavy Rain
4:00 PM 57.2 °F 55.4 °F 94% 29.35 in 3.0 mi West 10.4 mph 19.6 mph 0.12 in Rain Light Rain
4:12 PM 57.2 °F 55.4 °F 94% 29.36 in 3.0 mi SW 6.9 mph - 0.12 in Rain Light Rain
4:53 PM 55.9 °F 55.0 °F 97% 29.34 in 6.0 mi SW 8.1 mph - 0.14 in Rain Light Rain
5:02 PM 55.4 °F 55.4 °F 100% 29.36 in 3.0 mi SSW 6.9 mph - 0.00 in Rain Light Rain
5:05 PM 55.4 °F 55.4 °F 100% 29.36 in 1.8 mi SW 12.7 mph 18.4 mph 0.02 in Rain Heavy Rain
5:17 PM 55.4 °F 53.6 °F 94% 29.36 in 3.0 mi West 17.3 mph 25.3 mph 0.05 in Rain Light Rain
5:34 PM 55.4 °F 53.6 °F 94% 29.37 in 10.0 mi West 12.7 mph 23.0 mph 0.07 in Rain Light Rain
5:53 PM 55.0 °F 53.1 °F 93% 29.37 in 4.0 mi WNW 6.9 mph - 0.10 in Rain Light Rain
6:03 PM 53.6 °F 53.6 °F 100% 29.39 in 2.5 mi West 9.2 mph - 0.01 in Rain Light Rain
6:17 PM 53.6 °F 51.8 °F 94% 29.40 in 7.0 mi West 18.4 mph 29.9 mph 0.04 in Rain Light Rain
6:24 PM 53.6 °F 51.8 °F 94% 29.40 in 7.0 mi West 15.0 mph 23.0 mph 0.05 in Rain Light Rain
6:34 PM 53.6 °F 51.8 °F 94% 29.41 in 9.0 mi West 13.8 mph 23.0 mph 0.06 in Rain Light Rain
6:42 PM 53.6 °F 51.8 °F 94% 29.42 in 8.0 mi West 13.8 mph 21.9 mph 0.07 in Rain Light Rain
6:53 PM 52.0 °F 51.1 °F 97% 29.41 in 7.0 mi West 15.0 mph - 0.09 in Rain Light Rain
7:53 PM 51.1 °F 50.0 °F 96% 29.43 in 9.0 mi West 9.2 mph - 0.05 in Rain Light Rain
8:53 PM 51.8 °F 50.0 °F 94% 29.45 in 7.0 mi SW 8.1 mph - N/A Rain Light Rain
9:05 PM 51.8 °F 48.2 °F 88% 29.45 in 10.0 mi SW 8.1 mph - 0.00 in Rain Light Rain
9:34 PM 51.8 °F 48.2 °F 88% 29.45 in 6.0 mi WSW 9.2 mph - 0.00 in Rain Light Rain
9:53 PM 51.1 °F 48.9 °F 92% 29.45 in 5.0 mi SW 9.2 mph - 0.02 in Rain Light Rain
10:53 PM 48.9 °F 46.9 °F 93% 29.45 in 9.0 mi West 13.8 mph - 0.03 in Rain Light Rain
11:53 PM 48.0 °F 45.0 °F 89% 29.45 in 10.0 mi West 12.7 mph - 0.00 in Rain Light Rain